Location: Unspecified
(0.0000°N, 0.0000°E)
Time: 13:37:47
(UTC+00:00)

O/OREOS (USA 219) - Visible Passes

Search period start: 09 December 2019 00:00
Search period end: 19 December 2019 00:00
Orbit: 621 x 646 km, 72.0° (Epoch: 22 May)

Date Brightness Start Highest point End Pass type
(mag) Time Alt. Az. Time Alt. Az. Time Alt. Az.
11 Dec ? 20:04:10 10° S 20:04:58 15° S 20:04:58 15° S visible
12 Dec ? 20:26:00 10° SSW 20:27:19 19° SSW 20:27:19 19° SSW visible
13 Dec ? 19:10:16 10° SSE 19:12:16 17° ESE 19:12:16 17° ESE visible
13 Dec ? 20:49:10 10° WSW 20:49:46 12° WSW 20:49:46 12° WSW visible
14 Dec ? 19:30:53 10° S 19:34:46 49° SE 19:34:46 49° SE visible
15 Dec ? 19:52:52 10° SSW 19:57:15 49° WNW 19:57:19 49° WNW visible
16 Dec ? 18:36:44 10° SSE 18:40:07 21° ESE 18:42:26 14° ENE visible
16 Dec ? 20:16:18 10° WSW 20:19:14 17° WNW 20:19:57 16° WNW visible
17 Dec ? 18:57:36 10° S 19:02:05 61° ESE 19:05:07 20° NNE visible
18 Dec ? 19:19:45 10° SSW 19:24:03 42° WNW 19:27:50 13° N visible
